Hourly Data Report for October 24, 2015

All times are specified in Local Standard Time (LST). Add 1 hour to adjust for Daylight Saving Time where and when it is observed.

EUREKA CLIMATE
NUNAVUT

79°59'21.000" N
85°56'02.000" W
10.00 m
2401199
71613
NEK

Download Data

Hourly Data (October 2015)
Hourly Data Report for October 24, 2015
Temp Definition
°C
Dew Point Temp Definition
°C
Rel Hum Definition
%
Wind Dir Definition
10's deg

Wind Spd Definition
km/h
Visibility Definition
km
Stn Press Definition
kPa
Hmdx Definition


Wind Chill Definition


Weather Definition


TIME
00:00 -26.9 -29.2 80 36 8   100.71   -34 LegendNANA
01:00 -29.3 -32.1 76 14 6   100.71   -36 LegendNANA
02:00 -28.9 -31.6 78 9 4   100.75   -33 LegendNANA
03:00 -28.9 -31.5 79 11 6   100.75   -35 LegendNANA
04:00 -27.8 -30.1 81 5 5   100.78   -33 LegendNANA
05:00 -28.5 -31.1 78 11 4   100.82   -33 LegendNANA
06:00 -25.8 -27.7 84 35 4   100.83   -30 LegendNANA
07:00 -24.4 -26.4 83 32 7   100.83   -31 LegendNANA
08:00 -26.0 -28.5 80 1 13   100.84   -36 LegendNANA
09:00 -22.6 -24.7 83 29 9   100.83   -30 LegendNANA
10:00 -23.3 -25.8 80 31 20   100.80   -35 LegendNANA
11:00 -21.5 -24.3 78 30 25   100.78   -34 LegendNANA
12:00 -21.9 -24.8 77 31 15   100.76   -31 LegendNANA
13:00 -27.1 -31.7 65 22 14   100.79   -37 LegendNANA
14:00 -28.1 -30.8 78 11 8   100.76   -36 LegendNANA
15:00 -27.7 -30.4 77 12 7   100.75   -35 LegendNANA
16:00 -24.7 -27.4 79 30 6   100.71   -30 LegendNANA
17:00 -20.1 -23.0 77 27 15   100.66   -29 LegendNANA
18:00 -23.4 -26.7 74 28 13   100.64   -33 LegendNANA
19:00 -24.1 -27.0 77 35 17   100.60   -35 LegendNANA
20:00 -24.8 -27.6 78 35 38   100.60   -40 LegendNANA
21:00 -22.9 -26.6 72 31 15   100.61   -33 LegendNANA
22:00 -22.3 -25.9 72 31 6   100.56   -28 LegendNANA
23:00 -20.9 -24.3 74 27 21   100.50   -32 LegendNANA

Notes on Data Quality.

Legend

  • E = Estimated
  • M = Missing
  • NA = Not Available
  • ‡ = Partner data that is not subject to review by the National Climate Archives
Date modified: